Zurück zum Katalog

STARLINK-34988

AktivKommunikationSSO
NORAD 65453·PAYLOAD·🇺🇸 United States

Gestartet Sep 3, 2025 von Vandenberg Space Force Base

Loading…

Nächste Überflüge (nächste 24 Stunden)

TLE

AktuellSource: CelesTrak SupGP

Epoche: Sep 15, 2026, 04:05 UTC

1 65453C 25194V   26258.17062500 -.00053946  00000+0 -38281-2 0  2588
2 65453  97.2851 108.4633 0001403  83.3270  65.6849 15.04869209    16

Verfolge STARLINK-34988 in Echtzeit mit AllMySat

Download on the App Store